SV1BIX Weather Reports


time (UTC)temp
C
wind
direction
speed
KPH
gust
KPH
rain 1hr
cm
rain 24hr
cm
rain mn
cm
humidity
%
barometer
mb
20260508114517 21 200 12.9 24.1 0.00 0.00 0.00 47 1017.5
20260508113005 21 203 11.3 20.9 0.00 0.00 0.00 46 1017.1
20260508111506 21 200 8.0 16.1 0.00 0.00 0.00 48 1017.6
20260508110005 21 201 1.6 16.1 0.00 0.00 0.00 48 1018.1
20260508104501 21 201 4.8 20.9 0.00 0.00 0.00 48 1018.2
20260508103101 21 197 8.0 16.1 0.00 0.00 0.00 48 1018.4
20260508103001 21 197 4.8 16.1 0.00 0.00 0.00 49 1018.4
20260508101602 21 197 9.7 19.3 0.00 0.00 0.00 49 1018.3
20260508100059 21 197 4.8 14.5 0.00 0.00 0.00 49 1018.7
20260508094559 21 197 3.2 16.1 0.00 0.00 0.00 50 1019.2
20260508093056 20 197 6.4 19.3 0.00 0.00 0.00 49 1019.1
20260508091545 21 197 6.4 16.1 0.00 0.00 0.00 53 1019.6
20260508084541 20 197 6.4 16.1 0.00 0.00 0.00 55 1019.5
20260508083040 20 197 4.8 16.1 0.00 0.00 0.00 53 1019.8
20260508081539 20 197 6.4 16.1 0.00 0.00 0.00 51 1019.5
20260508080040 20 197 6.4 12.9 0.00 0.00 0.00 50 1019.6
20260508074541 20 197 8.0 14.5 0.00 0.00 0.00 50 1019.7
20260508073024 19 197 9.7 16.1 0.00 0.00 0.00 50 1019.9
20260508071527 19 197 9.7 16.1 0.00 0.00 0.00 49 1020.1
20260508070022 19 197 11.3 16.1 0.00 0.00 0.00 47 1020.5
20260508064521 19 197 8.0 16.1 0.00 0.00 0.00 45 1020.3
20260508063018 19 197 4.8 14.5 0.00 0.00 0.00 42 1020.0
20260508061515 20 197 4.8 14.5 0.00 0.00 0.00 37 1019.8
20260508060011 20 196 4.8 11.3 0.00 0.00 0.00 36 1019.4
20260508054511 20 197 4.8 12.9 0.00 0.00 0.00 36 1018.7
20260508053052 19 197 4.8 11.3 0.00 0.00 0.00 39 1018.4
20260508051552 19 197 0.0 1.6 0.00 0.00 0.00 42 1018.1
20260508050041 18 197 0.0 1.6 0.00 0.00 0.00 42 1017.9
20260508044551 18 197 0.0 4.8 0.00 0.00 0.00 44 1018.1
20260508043037 -17 0.0 0.0 0.00 0.00 0.00 1017.9
20260508041539 -17 0.0 0.0 0.00 0.00 0.00 1017.4
20260508040026 -17 0.0 0.0 0.00 0.00 0.00 1017.0
20260508034523 -17 0.0 0.0 0.00 0.00 0.00 1016.8
20260508033025 -17 0.0 0.0 0.00 0.00 0.00 1016.8
20260508031514 -17 0.0 0.0 0.00 0.00 0.00 1016.9
20260508030010 -17 0.0 0.0 0.00 0.00 0.00 1016.9
20260508024547 -17 0.0 0.0 0.00 0.00 0.00 1016.8
20260508023047 -17 0.0 0.0 0.00 0.00 0.00 1017.1
20260508021533 20 197 3.2 11.3 0.00 0.00 0.00 37 1017.0
20260508020026 20 197 6.4 11.3 0.00 0.00 0.00 37 1017.0
20260508014527 19 197 6.4 14.5 0.00 0.00 0.00 40 1017.1
20260508013023 19 197 6.4 12.9 0.00 0.00 0.00 42 1017.3
20260508011518 19 197 6.4 14.5 0.00 0.00 0.00 42 1017.5
20260508010034 18 197 4.8 11.3 0.00 0.00 0.00 46 1017.5
20260508004522 18 197 0.0 1.6 0.00 0.00 0.00 51 1017.8
20260508003020 18 197 0.0 1.6 0.00 0.00 0.00 51 1017.6
20260508001558 18 197 0.0 1.6 0.00 0.00 0.00 49 1017.8
20260508000055 19 197 0.0 6.4 0.00 0.00 0.00 47 1017.7
20260507234539 18 197 0.0 6.4 0.00 0.00 0.00 47 1018.1
20260507233034 18 197 0.0 1.6 0.00 0.00 0.00 53 1018.4
20260507231522 18 197 0.0 6.4 0.00 0.00 0.00 48 1018.5
20260507230020 18 197 0.0 8.0 0.00 0.00 0.00 57 1018.3
20260507224521 18 197 4.8 11.3 0.00 0.00 0.00 60 1018.6
20260507223016 18 197 0.0 6.4 0.00 0.00 0.00 59 1018.7
20260507221519 18 197 1.6 8.0 0.00 0.00 0.00 56 1018.6
20260507220018 18 197 4.8 14.5 0.00 0.00 0.00 59 1018.7
20260507214510 18 197 4.8 14.5 0.00 0.00 0.00 55 1019.1
20260507213018 18 197 6.4 12.9 0.00 0.00 0.00 53 1019.1
20260507211555 18 197 6.4 19.3 0.00 0.00 0.00 51 1019.0
20260507210116 18 198 11.3 22.5 0.00 0.00 0.00 51 1019.1
20260507204559 19 197 11.3 20.9 0.00 0.00 0.00 44 1019.0
20260507203057 20 196 6.4 16.1 0.00 0.00 0.00 39 1019.2
20260507201551 20 197 11.3 17.7 0.00 0.00 0.00 33 1019.0
20260507194550 20 197 11.3 19.3 0.00 0.00 0.00 35 1019.0
20260507193109 20 197 3.2 9.7 0.00 0.00 0.00 39 1018.8
20260507191536 20 197 3.2 16.1 0.00 0.00 0.00 38 1018.7
20260507190039 20 197 3.2 17.7 0.00 0.00 0.00 34 1018.6
20260507184534 20 197 9.7 17.7 0.00 0.00 0.00 35 1018.7
20260507183039 20 196 6.4 12.9 0.00 0.00 0.00 39 1018.6
20260507181532 20 197 11.3 17.7 0.00 0.00 0.00 39 1018.6
20260507180032 20 197 8.0 17.7 0.00 0.00 0.00 44 1018.7
20260507174532 19 197 8.0 14.5 0.00 0.00 0.00 45 1018.5
20260507173031 20 197 8.0 16.1 0.00 0.00 0.00 46 1018.6
20260507171519 20 197 6.4 12.9 0.00 0.00 0.00 43 1018.7
20260507170019 21 197 3.2 11.3 0.00 0.00 0.00 38 1018.2
20260507164518 21 197 9.7 16.1 0.00 0.00 0.00 39 1018.1
20260507163017 21 197 8.0 17.7 0.00 0.00 0.00 38 1018.2
20260507161520 21 197 8.0 17.7 0.00 0.00 0.00 39 1018.2
20260507160027 21 197 9.7 17.7 0.00 0.00 0.00 40 1018.0
20260507154517 21 197 9.7 19.3 0.00 0.00 0.00 38 1018.2
20260507153020 21 200 14.5 22.5 0.00 0.00 0.00 38 1018.4
20260507151506 21 197 8.0 17.7 0.00 0.00 0.00 41 1018.6
20260507150003 21 197 4.8 17.7 0.00 0.00 0.00 43 1018.5
20260507144502 21 197 11.3 20.9 0.00 0.00 0.00 41 1018.6
20260507143002 21 200 8.0 22.5 0.00 0.00 0.00 42 1018.5
20260507141503 21 198 12.9 22.5 0.00 0.00 0.00 40 1018.6
20260507140111 22 201 14.5 27.4 0.00 0.00 0.00 39 1018.2
20260507134609 22 200 9.7 24.1 0.00 0.00 0.00 37 1018.2
20260507133108 23 201 12.9 20.9 0.00 0.00 0.00 33 1018.0
20260507131546 22 198 11.3 22.5 0.00 0.00 0.00 33 1017.9
20260507130044 22 201 12.9 20.9 0.00 0.00 0.00 37 1018.2
20260507124542 22 197 11.3 24.1 0.00 0.00 0.00 38 1018.5
20260507123045 22 200 9.7 20.9 0.00 0.00 0.00 42 1018.6
20260507121539 22 197 11.3 22.5 0.00 0.00 0.00 44 1018.6
20260507120038 22 195 12.9 22.5 0.00 0.00 0.00 46 1018.6